Theta_e
280 279 279 278 278 278 277 277 277 277 277 277 277 278 277 277 277 277 277 276 276 276 276 276 276 277 277 277 277 277 277 278 278 278 278 278 278 279 279 279 279 280
280 279 279 278 278 278 278 278 277 277 277 277 277 277 277 277 277 276 276 275 276 276 276 276 276 276 277 277 277 277 277 277 277 278 278 278 278 278 279 279 279 280
280 279 278 278 278 279 279 279 278 277 277 277 277 277 276 276 276 276 275 275 275 275 275 276 276 276 276 276 277 277 277 277 277 277 277 277 277 277 278 278 278 278
279 279 279 279 279 279 279 278 278 277 277 277 277 276 276 275 275 274 274 274 274 274 275 275 275 275 276 276 276 276 277 277 277 277 277 277 277 277 277 277 277 278
280 279 279 279 279 279 278 278 277 277 277 277 276 276 275 275 274 273 273 273 273 274 274 274 274 275 275 276 276 276 276 276 276 276 276 276 276 276 277 277 277 278
280 280 280 280 279 279 278 277 277 277 276 276 275 275 274 274 273 273 272 272 273 273 273 273 274 274 275 275 275 276 276 276 276 276 276 276 276 276 276 276 276 277
280 280 280 279 279 278 277 277 276 276 275 274 274 274 273 272 272 271 272 272 272 272 273 273 273 274 274 275 275 275 275 275 275 275 275 275 275 275 275 275 275 276
280 279 279 278 278 277 276 276 275 275 274 273 273 272 271 271 271 271 271 271 272 272 272 272 272 273 273 273 273 273 273 274 274 274 274 274 274 274 274 274 275 275
279 278 278 277 277 276 275 275 274 274 273 272 271 271 270 270 270 270 271 271 271 271 271 271 271 272 272 272 272 272 272 272 273 273 273 273 273 273 273 273 274 275
278 277 276 276 275 274 274 274 274 273 272 270 270 270 269 270 270 270 270 270 270 270 270 270 270 270 270 270 270 270 270 271 271 271 271 272 272 272 272 273 273 274
277 276 275 275 274 273 273 273 273 271 270 269 269 269 269 269 269 268 268 268 268 268 268 268 268 268 268 268 268 269 269 269 269 270 270 270 271 271 271 272 272 273
276 275 275 274 273 273 273 272 271 270 269 268 268 267 267 267 267 267 266 266 266 266 266 266 266 266 267 267 267 267 267 268 268 268 269 269 270 270 271 271 272 272
275 275 274 273 273 273 273 271 270 268 268 267 266 266 266 265 265 265 265 265 265 265 265 265 265 265 265 266 266 266 267 267 267 268 268 269 269 270 270 271 271 272
275 274 273 273 273 273 272 270 268 267 267 266 266 265 265 264 264 264 264 264 264 264 264 264 264 265 265 265 266 266 266 267 267 268 268 269 269 270 270 271 271 272
274 273 272 273 273 272 270 268 267 267 267 266 266 265 265 264 263 263 263 263 264 264 264 264 264 265 265 266 266 267 267 268 269 269 270 270 270 270 271 271 271 272
273 273 272 273 273 271 269 268 267 267 267 267 267 265 264 264 263 263 263 263 264 264 264 264 265 265 266 267 268 269 269 270 270 271 271 271 272 272 272 272 272 272
272 272 273 273 271 269 268 267 267 267 267 267 266 265 264 263 263 263 263 264 264 264 265 265 265 265 266 267 269 270 270 270 271 271 272 272 273 273 273 274 274 274
272 273 273 272 270 268 268 267 267 268 268 267 265 264 263 263 263 263 264 264 264 264 265 265 265 265 266 268 268 269 270 271 271 271 272 273 273 274 274 274 275 275
272 273 272 270 269 268 267 267 268 268 267 266 264 263 263 263 263 263 264 264 264 264 264 264 264 265 266 268 268 269 270 271 271 272 272 273 274 274 275 275 275 275
273 272 271 269 268 268 268 268 268 268 266 265 264 263 263 263 263 263 263 263 264 264 264 264 264 265 266 268 269 270 271 271 272 272 273 273 274 274 275 276 276 276
273 271 269 268 268 269 269 269 268 267 265 264 263 263 263 263 263 263 263 263 263 263 264 264 264 265 266 268 269 270 271 272 272 272 272 273 274 274 275 276 276 277
271 270 268 268 268 269 269 269 267 266 265 264 263 263 263 263 263 263 263 263 263 263 263 263 264 265 267 268 269 271 271 272 272 272 273 273 274 274 275 275 276 277
270 268 267 268 269 269 269 268 266 265 264 263 263 263 262 263 263 263 263 263 263 263 264 264 264 265 267 269 270 270 271 271 272 272 273 273 273 273 274 275 276 276
269 267 267 268 269 268 268 267 266 265 264 263 263 262 262 263 263 263 263 263 263 264 264 264 265 266 267 269 269 270 271 272 272 272 272 272 273 273 274 274 275 276
268 266 267 268 268 268 268 267 265 265 264 263 263 263 263 263 263 263 263 263 264 264 265 265 266 266 267 268 270 271 272 272 272 272 272 272 273 273 273 274 274 275
267 267 267 267 268 268 268 267 265 264 264 263 263 263 263 263 263 263 263 264 265 265 266 266 266 266 267 269 270 271 272 272 272 272 272 272 272 273 273 274 275 275
Wind_Speed
7 8 9 10 12 13 14 15 17 19 20 22 24 26 27 28 29 29 30 30 30 31 31 31 30 29 27 25 24 26 26 26 27 26 26 28 29 30 31 32 32 33
6 7 8 10 12 13 14 16 18 19 21 22 24 26 28 29 30 30 30 30 30 30 30 29 28 27 26 25 25 26 26 27 28 27 27 30 30 30 32 32 32 33
5 7 8 10 12 14 16 18 19 20 22 24 25 27 28 29 30 31 30 30 30 30 29 28 27 26 26 26 26 27 28 29 30 29 29 31 31 31 33 33 33 33
5 7 9 11 13 15 17 19 21 21 23 25 26 27 28 29 31 31 31 31 30 29 28 27 26 25 25 26 26 27 28 30 30 29 29 31 31 31 32 32 33 34
5 8 10 12 14 16 18 20 21 23 24 26 27 27 28 29 30 31 32 30 28 28 27 25 25 25 25 25 26 27 28 28 27 27 29 31 31 31 31 30 32 34
6 9 11 13 15 17 19 20 22 23 24 26 26 27 28 30 30 31 31 29 27 25 24 24 24 24 24 24 25 26 26 27 27 27 29 30 30 32 32 30 32 34
7 9 11 14 15 17 19 21 22 23 24 25 27 28 29 29 29 28 27 25 23 22 22 23 24 24 24 24 25 27 27 27 28 28 28 30 30 33 34 32 32 34
8 10 12 14 16 17 19 21 22 23 24 25 28 29 28 26 24 22 21 21 21 22 23 24 25 26 25 25 25 27 28 28 28 27 27 29 31 33 33 31 31 33
8 10 12 14 16 18 19 20 22 23 24 26 27 25 22 20 20 19 19 21 22 23 24 25 26 26 25 25 26 27 28 29 29 28 28 29 31 32 31 30 31 33
8 9 11 14 15 17 19 20 21 23 24 24 23 20 17 17 18 19 20 22 23 24 25 25 25 26 26 26 27 27 28 29 29 30 31 31 31 32 31 30 31 32
7 9 12 14 15 17 19 20 21 22 22 21 18 17 18 18 20 20 21 22 23 25 25 26 26 26 27 28 27 27 28 30 30 30 31 31 31 32 32 31 31 32
7 9 11 13 15 17 18 20 21 20 20 20 19 19 21 21 21 21 21 22 23 24 25 26 27 27 27 28 27 27 28 29 30 30 30 31 31 31 32 31 31 32
7 9 11 13 14 16 18 19 20 19 19 21 21 21 22 23 22 21 22 22 22 23 25 26 26 27 27 27 27 27 28 28 28 29 29 29 30 31 31 31 31 31
7 8 10 12 14 16 17 17 19 19 20 21 21 21 22 22 22 22 21 21 21 22 25 26 27 27 26 26 27 27 27 27 28 28 29 30 31 32 32 32 32 32
7 8 10 12 13 15 16 17 19 20 21 21 22 22 23 23 22 21 21 24 27 27 26 26 26 26 24 24 25 26 26 28 29 29 29 31 31 32 33 34 34 33
6 8 10 12 13 14 16 17 19 20 22 22 23 24 24 25 25 24 23 26 28 27 24 23 24 24 24 26 28 29 29 30 30 31 31 31 31 29 30 31 32 33
6 8 10 12 13 14 16 17 19 21 22 23 24 24 24 25 26 26 23 21 22 22 22 23 25 26 27 30 31 32 32 33 33 33 32 32 32 31 30 30 29 30
5 8 10 11 13 14 16 17 19 21 23 24 24 24 25 25 25 23 21 19 21 23 25 26 27 28 30 32 33 33 33 34 34 33 32 32 32 31 32 32 31 32
5 8 10 11 12 14 16 18 20 22 23 24 24 24 24 25 24 23 21 21 23 26 27 27 29 31 32 33 34 34 34 33 33 33 33 32 32 32 32 32 32 34
6 7 9 11 12 14 16 18 21 22 23 23 24 24 25 25 26 25 24 24 25 27 28 29 31 33 33 34 34 34 34 33 32 31 31 31 32 32 32 33 33 33
6 7 9 11 12 14 17 19 21 22 22 24 24 24 24 25 26 27 28 29 30 30 31 33 34 33 33 34 34 33 33 32 30 29 30 30 30 31 31 32 33 32
5 6 8 10 12 15 17 19 21 22 22 23 24 25 25 26 26 28 30 31 32 32 33 36 36 34 32 34 34 32 32 30 29 29 29 29 29 30 30 31 31 30
4 6 7 9 12 15 17 19 20 21 22 23 24 26 27 27 28 29 30 31 31 32 33 36 37 34 32 33 33 33 32 30 29 28 28 29 29 30 30 30 30 30
2 5 6 9 11 14 16 18 19 21 22 22 24 26 27 28 29 30 30 29 30 31 31 33 35 34 32 32 32 31 32 31 29 28 28 29 30 29 30 30 31 32
1 4 6 7 10 12 15 17 19 20 22 22 23 25 27 29 29 29 29 28 28 29 29 29 32 34 32 30 30 32 33 32 29 29 29 29 29 29 30 30 31 33
1 3 5 6 8 11 13 16 18 19 21 22 23 25 27 28 29 28 28 27 26 26 27 28 31 33 31 29 30 33 34 32 29 28 28 28 28 29 30 31 32 32
Wind_Direction
261 272 283 291 295 301 307 310 312 311 311 312 312 311 309 309 308 305 303 299 295 291 288 287 284 282 281 278 277 276 274 272 270 268 266 265 265 265 264 263 264 265
261 276 288 295 301 309 312 315 314 311 312 313 313 311 310 309 308 305 302 297 293 289 286 285 281 279 278 276 276 275 273 272 270 267 266 266 265 265 266 265 265 264
269 286 294 302 309 315 317 317 316 314 314 315 314 313 311 309 308 305 301 296 292 287 285 283 280 277 277 275 274 273 271 271 271 269 267 267 266 266 267 266 264 264
281 295 303 311 315 318 319 318 317 317 317 316 316 315 312 310 307 303 300 296 292 288 286 284 281 279 278 276 274 272 270 269 270 269 267 266 265 266 266 266 265 264
294 305 312 317 319 321 320 317 318 319 318 317 317 315 312 310 306 301 299 296 293 290 288 286 284 282 279 276 274 271 270 270 268 266 265 264 266 267 265 266 267 265
304 311 316 319 321 321 319 319 320 321 320 319 316 314 312 308 304 302 301 298 294 291 289 289 288 286 282 278 275 272 270 270 270 267 263 263 267 269 267 267 267 266
309 315 318 319 321 321 320 322 323 323 322 319 314 313 313 309 305 305 303 298 294 293 292 291 290 288 284 279 275 274 272 271 271 268 264 265 268 268 268 269 267 265
313 316 319 320 322 323 324 325 326 325 323 317 313 314 314 310 305 303 302 298 296 295 294 292 290 288 285 280 276 276 276 275 272 268 266 268 269 267 267 269 268 265
314 317 320 324 327 325 325 327 327 325 322 317 315 313 309 307 305 302 300 300 298 296 295 292 290 288 284 281 279 278 278 277 273 269 269 270 270 269 269 269 268 266
315 322 326 328 329 326 327 329 327 324 321 318 315 309 303 304 306 304 301 301 299 297 294 291 289 289 286 283 281 279 278 278 275 272 272 271 270 270 271 270 268 267
322 330 333 332 329 328 330 330 327 323 320 317 312 307 306 307 308 306 304 301 299 297 294 291 291 291 287 286 285 281 278 278 276 275 275 274 271 269 270 270 268 268
335 338 337 333 330 332 332 330 326 323 319 317 314 311 312 312 309 306 303 299 296 295 294 293 293 293 289 288 287 283 280 279 277 276 275 273 271 270 270 270 269 269
343 342 338 334 333 334 333 328 325 322 318 318 319 317 317 316 311 306 302 298 294 294 297 297 295 294 291 289 288 284 282 280 279 277 276 274 272 271 270 269 268 268
347 344 338 336 337 335 332 327 324 323 322 323 324 324 323 319 312 305 299 297 296 295 299 300 298 294 291 290 288 285 283 282 279 277 274 272 269 266 265 265 264 263
350 344 340 340 339 336 331 327 327 329 330 330 331 331 328 322 313 305 301 304 308 305 301 300 298 294 291 290 289 287 285 282 280 277 273 270 266 261 258 258 258 258
352 344 344 343 340 335 331 330 333 335 336 336 337 336 331 324 318 314 310 309 310 308 303 300 299 295 294 294 293 292 291 287 285 283 279 276 274 268 261 256 254 254
350 344 348 345 339 335 333 335 338 338 340 341 340 336 331 327 323 319 315 308 305 306 305 303 302 299 299 299 298 297 295 292 290 287 284 281 279 275 272 267 262 259
347 348 349 342 338 337 337 339 341 342 343 343 339 335 332 328 325 320 314 311 308 307 306 304 303 301 302 303 302 300 298 294 291 289 287 284 280 276 273 270 268 269
351 352 346 339 339 341 340 342 343 345 345 342 337 335 332 328 324 320 315 312 310 307 306 305 303 303 305 306 304 302 300 297 293 290 287 285 282 278 274 270 268 269
356 350 342 338 342 343 342 343 345 346 345 342 338 335 331 327 324 321 318 313 309 306 304 304 303 303 306 308 307 305 302 299 296 292 290 288 286 283 279 274 269 266
356 345 339 341 345 346 343 344 346 346 344 343 338 333 329 326 323 321 317 313 311 309 306 305 305 305 308 310 309 307 306 303 300 298 294 291 289 288 284 280 275 269
349 339 339 344 348 347 344 344 346 346 345 343 337 332 328 326 323 319 314 311 311 311 307 306 307 309 310 312 312 312 311 308 303 298 295 292 293 293 291 288 285 279
336 334 341 348 350 347 343 344 346 345 344 342 335 330 327 324 320 316 312 310 310 311 309 307 309 312 312 313 315 315 314 310 305 301 299 298 298 296 294 292 289 284
328 334 346 351 350 344 342 344 345 343 343 340 333 326 322 321 317 311 309 309 309 310 310 306 307 311 312 313 316 317 315 312 309 306 303 300 298 296 294 292 290 288
335 345 352 351 345 340 340 343 344 342 340 337 331 325 319 317 314 308 306 309 310 312 313 308 307 311 313 314 318 320 318 315 311 306 303 301 299 298 296 292 290 290
31 8 355 348 340 336 336 342 345 343 339 335 330 324 319 314 311 306 306 310 314 316 318 315 313 314 316 318 321 323 322 319 314 308 304 301 299 297 295 292 290 290